Regional Weather Roundup
Issued by NWS

Home | Current Version | Previous Version | Graphics & Text | Print | Product List | Glossary On
Versions: 1 2 3 4 5 6 7 8 9 10 11 12 13 14 15 16 17 18 19 20 21 22 23 24 25 26 27 28 29 30 31 32 33 34 35 36 37 38 39 40 41 42 43 44 45 46 47 48 49 50
000
ASUS45 KSLC 040910
RWRUT

UTAH REGIONAL WEATHER ROUNDUP
NATIONAL WEATHER SERVICE SALT LAKE CITY UT
300 AM MDT FRI SEP 04 2015

UTZ001>011-023>025-041000-

NORTHERN UTAH

CITY           SKY/WX    TMP DP  RH WIND       PRES   REMARKS
BRIGHAM CITY   PTCLDY    71  38  29 CALM      29.80S
HILL AFB       PTCLDY    71  37  28 S13       29.83S
LOGAN          PTCLDY    56  49  77 CALM      29.82R
OGDEN          PTCLDY    73  37  27 S10       29.80S
PROVO AIRPORT  CLEAR     66  36  32 CALM      29.88R
SALT LAKE CITY PTCLDY    75  36  24 S15       29.81R
VERNAL         CLEAR     59  40  49 W6        29.94S
WENDOVER       PTCLDY    64  36  34 S6        29.81S
HEBER CITY     CLEAR     64  32  29 S5        29.93S
WEST JORDAN    CLEAR     72  37  28 SE15      29.85R

$$

UTZ012>022-026-027-041000-

SOUTHERN/CENTRAL UTAH

CITY           SKY/WX    TMP DP  RH WIND       PRES   REMARKS
BLANDING       CLOUDY    64  48  55 SE6       30.15S
BRYCE CANYON   CLEAR     43  33  68 SW3       30.15F
CEDAR CITY     CLEAR     66  31  27 S13       29.97F
DELTA          CLEAR     65  31  28 S13       29.90S
HANKSVILLE     CLEAR     75  41  29 SW17      29.92F
MILFORD        CLEAR     61  29  29 SW13      29.92F
MOAB/CYNLANDS  PTCLDY    70  39  32 SW10      29.90S
PRICE          CLEAR     61  35  37 NE8       29.98F
ST GEORGE      SUNNY     75  36  23 SE9       29.84S
KANAB          CLEAR     57  45  62 N3        30.05S

$$

REGIONAL REPORTS     COLORADO/ARIZONA

CITY           SKY/WX    TMP DP  RH WIND       PRES   REMARKS
CRAIG, CO      CLEAR     51  44  77 VRB3      30.06R
GRAND JUNCTION CLEAR     64  50  60 E21G28    29.95F
RIFLE          CLEAR     54  50  86 CALM      30.04S
MONTROSE       MOCLDY    57  48  72 SE6       30.08R
CORTEZ         PTCLDY    59  43  55 NE8       30.09S
PAGE, AZ       PTCLDY    72  52  49 VRB3      29.96F
GRAND CANYON   MOCLDY    56  50  80 CALM      30.15
KINGMAN        CLEAR     74  47  38 SE9       29.92S
FLAGSTAFF      CLOUDY    56  53  90 CALM      30.18F

$$

REGIONAL REPORTS    NEVADA/IDAHO/WYOMING

CITY           SKY/WX    TMP DP  RH WIND       PRES   REMARKS
LAS VEGAS, NV  CLEAR     82  35  18 S8        29.73S
ELY            CLEAR     61  28  28 S15       29.94S
ELKO           CLEAR     47  34  60 CALM      29.87S
POCATELLO, ID  CLEAR     54  40  59 SW12      29.87S
BURLEY         PTCLDY    51  39  63 SW5       29.85S
EVANSTON, WY   CLEAR     59  29  31 SW13      30.01S
ROCK SPRINGS   CLEAR     59  37  44 SE10      30.01S
KEMMERER       CLEAR     54  30  40 CALM      30.03S

$$


USA.gov is the U.S. government's official web portal to all federal, state and local government web resources and services.